Regional Weather Roundup
Issued by NWS

Home | Current Version | Previous Version | Text Only | Print | Product List | Glossary On
Versions: 1 2 3 4 5 6 7 8 9 10 11 12 13 14 15 16 17 18 19 20 21 22 23 24 25 26 27 28 29 30 31 32 33 34 35 36 37 38 39 40 41 42 43 44 45 46 47 48 49 50
000
ASUS44 KOUN 210710
RWROK

WEATHER ROUNDUP FOR OKLAHOMA
NATIONAL WEATHER SERVICE NORMAN OK
200 AM CDT THU SEP 21 2017

NOTE: "FAIR" INDICATES FEW OR NO CLOUDS BELOW 12,000 FEET WITH NO
      SIGNIFICANT WEATHER AND/OR OBSTRUCTIONS TO VISIBILITY.

OKZ001>007-009>012-014-015-017-210800-
NORTHWEST OKLAHOMA AND THE PANHANDLE

CITY           SKY/WX    TMP DP  RH WIND       PRES   REMARKS
GAGE           CLEAR     60  54  80 CALM      29.85F
GUYMON         CLEAR     54  47  77 S3        29.88F
ENID/WOODRING  MOCLDY    73  72  94 S7        29.82S
$$

OKZ016-021>023-033>039-044-045-210800-
SOUTHWEST OKLAHOMA

CITY           SKY/WX    TMP DP  RH WIND       PRES   REMARKS
LAWTON/REGL    CLOUDY    78  73  84 S10       29.84F
LAWTON/FT SILL PTCLDY    78  74  85 S9        29.84R
CLINTON        CLEAR     75  68  78 S13       29.85F
HOBART         CLOUDY    79  70  74 S17       29.83S
ALTUS AFB      CLEAR     77  67  71 SE9       29.82S
$$

OKZ018>020-024>031-210800-
CENTRAL OKLAHOMA

CITY           SKY/WX    TMP DP  RH WIND       PRES   REMARKS
OKLAHOMA CITY  CLOUDY    78  71  79 S12       29.86S
OKC/WILEY POST CLOUDY    81  71  71 S20       29.85S
OKC/TINKER AFB CLOUDY    80  70  70 S13       29.87R
STILLWATER     CLOUDY    80  70  71 S10       29.85S
GUTHRIE        CLOUDY    81  70  69 S12       29.84S
$$

OKZ008-013-054>072-210800-
NORTHEAST OKLAHOMA

CITY           SKY/WX    TMP DP  RH WIND       PRES   REMARKS
TULSA          PTCLDY    81  72  74 S13       29.87S
TULSA/JONES    CLEAR     80  72  76 S7        29.88S
PONCA CITY     CLEAR     80  71  74 S13       29.84S
MUSKOGEE       CLEAR     76  71  85 S5        29.91S
$$

OKZ032-040>043-046>053-073>077-210800-
SOUTH CENTRAL/SOUTHEAST OKLAHOMA

CITY           SKY/WX    TMP DP  RH WIND       PRES   REMARKS
ARDMORE/DWNTWN CLOUDY    79  68  69 S7        29.87S
MCALESTER      CLOUDY    82  70  66 VRB7      29.91S
$$





USA.gov is the U.S. government's official web portal to all federal, state and local government web resources and services.